When you browse on this site, cookies collect data to enhance your experience and personalize the content and advertising you see.
Visit our Privacy Policy to learn more. By continuing to use the site, you agree to this use of cookies and data.
  • In France
  • List of Countries
  • For 7 days
  • Water Temperature
  • Weather Map
  • Weather Widgets
  • user-avatar
    Login

    Hourly Weather Fier

    Today, 19 February, Wednesday

    Time Temperature Precipitation Wind Pressure Humidity
    00:00 +10°C° 0 mm 1 mps 763 mmHg 87%
    01:00 +10°C° 0 mm 1 mps 763 mmHg 87%
    02:00 +10°C° 0 mm 1 mps 763 mmHg 87%
    03:00 +10°C° 0 mm 1 mps 763 mmHg 86%
    04:00 +10°C° 0 mm 1 mps 763 mmHg 86%
    05:00 +10°C° 0 mm 1 mps 763 mmHg 85%
    06:00 +10°C° 0 mm 1 mps 763 mmHg 84%
    07:00 +9°C° 0 mm 2 mps 763 mmHg 82%
    08:00 +12°C° 0 mm 2 mps 763 mmHg 77%
    09:00 +13°C° 0 mm 1 mps 763 mmHg 73%
    10:00 +14°C° 0 mm 1 mps 763 mmHg 68%
    11:00 +15°C° 0 mm 1 mps 762 mmHg 68%
    12:00 +16°C° 0 mm 2 mps 762 mmHg 67%
    13:00 +17°C° 0 mm 2 mps 761 mmHg 66%
    14:00 +16°C° 0 mm 2 mps 761 mmHg 69%
    15:00 +16°C° 0 mm 2 mps 760 mmHg 71%
    16:00 +15°C° 0 mm 2 mps 760 mmHg 74%
    17:00 +14°C° 0.1 mm 2 mps 760 mmHg 79%
    18:00 +13°C° 0.1 mm 2 mps 760 mmHg 84%
    19:00 +12°C° 0.1 mm 1 mps 760 mmHg 89%
    20:00 +12°C° 0.2 mm 1 mps 760 mmHg 89%
    21:00 +12°C° 0.2 mm 1 mps 760 mmHg 89%
    22:00 +11°C° 0.2 mm 1 mps 760 mmHg 89%
    23:00 +10°C° 0.9 mm 2 mps 759 mmHg 90%

    Tomorrow, 20 February, Thursday

    Time Temperature Precipitation Wind Pressure Humidity
    00:00 +10°C° 0.9 mm 3 mps 759 mmHg 90%
    01:00 +10°C° 0.9 mm 4 mps 759 mmHg 90%
    02:00 +10°C° 1.2 mm 3 mps 759 mmHg 91%
    03:00 +10°C° 1.2 mm 2 mps 759 mmHg 91%
    04:00 +11°C° 1.2 mm 1 mps 759 mmHg 91%
    05:00 +10°C° 0.5 mm 2 mps 759 mmHg 91%
    06:00 +10°C° 0.5 mm 3 mps 759 mmHg 90%
    07:00 +10°C° 0.5 mm 3 mps 759 mmHg 90%
    08:00 +10°C° 2.2 mm 3 mps 759 mmHg 89%
    09:00 +10°C° 2.2 mm 3 mps 759 mmHg 89%
    10:00 +10°C° 2.2 mm 2 mps 759 mmHg 89%
    11:00 +10°C° 0.6 mm 3 mps 759 mmHg 85%
    12:00 +10°C° 0.6 mm 3 mps 759 mmHg 82%
    13:00 +11°C° 0.6 mm 4 mps 759 mmHg 79%
    14:00 +10°C° 0.2 mm 5 mps 760 mmHg 76%
    15:00 +10°C° 0.2 mm 5 mps 760 mmHg 73%
    16:00 +10°C° 0.2 mm 6 mps 760 mmHg 70%
    17:00 +9°C° 0 mm 5 mps 760 mmHg 71%
    18:00 +8°C° 0 mm 5 mps 761 mmHg 73%
    19:00 +8°C° 0 mm 4 mps 762 mmHg 75%
    20:00 +7°C° 0 mm 4 mps 762 mmHg 75%
    21:00 +7°C° 0 mm 4 mps 762 mmHg 75%
    22:00 +6°C° 0 mm 4 mps 763 mmHg 75%
    23:00 +6°C° 0 mm 4 mps 763 mmHg 73%

    Day after tomorrow, 21 February, Friday

    Time Temperature Precipitation Wind Pressure Humidity
    00:00 +6°C° 0 mm 4 mps 763 mmHg 72%
    01:00 +5°C° 0 mm 3 mps 764 mmHg 71%
    02:00 +5°C° 0 mm 3 mps 764 mmHg 70%
    03:00 +4°C° 0 mm 3 mps 764 mmHg 68%
    04:00 +4°C° 0 mm 3 mps 764 mmHg 67%
    05:00 +4°C° 0 mm 3 mps 764 mmHg 67%
    06:00 +4°C° 0 mm 3 mps 765 mmHg 66%
    07:00 +4°C° 0 mm 3 mps 765 mmHg 66%
    14:00 +13°C° 0 mm 3 mps 765 mmHg 40%
    15:00 +12°C° 0 mm 4 mps 765 mmHg 46%
    16:00 +12°C° 0 mm 5 mps 765 mmHg 49%
    17:00 +11°C° 0 mm 4 mps 766 mmHg 53%
    18:00 +10°C° 0 mm 4 mps 766 mmHg 57%
    19:00 +9°C° 0 mm 3 mps 767 mmHg 61%
    20:00 +8°C° 0 mm 3 mps 767 mmHg 61%
    21:00 +8°C° 0 mm 3 mps 767 mmHg 60%
    22:00 +8°C° 0 mm 3 mps 767 mmHg 60%
    23:00 +7°C° 0 mm 2 mps 768 mmHg 59%

    22 February, Saturday

    Time Temperature Precipitation Wind Pressure Humidity
    00:00 +7°C° 0 mm 2 mps 768 mmHg 58%
    01:00 +7°C° 0 mm 2 mps 768 mmHg 58%
    02:00 +7°C° 0 mm 2 mps 768 mmHg 57%
    03:00 +6°C° 0 mm 2 mps 768 mmHg 56%
    04:00 +6°C° 0 mm 2 mps 768 mmHg 55%
    05:00 +6°C° 0 mm 2 mps 768 mmHg 55%
    06:00 +6°C° 0 mm 2 mps 768 mmHg 55%
    07:00 +6°C° 0 mm 2 mps 768 mmHg 54%
    08:00 +8°C° 0 mm 2 mps 769 mmHg 51%
    09:00 +9°C° 0 mm 3 mps 769 mmHg 48%
    10:00 +11°C° 0 mm 3 mps 769 mmHg 45%
    11:00 +12°C° 0 mm 4 mps 769 mmHg 43%
    12:00 +13°C° 0 mm 4 mps 769 mmHg 41%
    13:00 +14°C° 0 mm 5 mps 769 mmHg 39%
    14:00 +13°C° 0 mm 5 mps 769 mmHg 39%
    15:00 +13°C° 0 mm 5 mps 769 mmHg 39%
    16:00 +13°C° 0 mm 5 mps 769 mmHg 39%
    17:00 +11°C° 0 mm 4 mps 769 mmHg 40%
    18:00 +10°C° 0 mm 4 mps 770 mmHg 42%
    19:00 +8°C° 0 mm 3 mps 771 mmHg 43%
    20:00 +8°C° 0 mm 3 mps 771 mmHg 44%
    21:00 +7°C° 0 mm 3 mps 771 mmHg 45%
    22:00 +7°C° 0 mm 2 mps 771 mmHg 46%
    23:00 +7°C° 0 mm 2 mps 772 mmHg 47%

    23 February, Sunday

    Time Temperature Precipitation Wind Pressure Humidity
    00:00 +6°C° 0 mm 2 mps 772 mmHg 47%
    01:00 +6°C° 0 mm 2 mps 772 mmHg 48%
    02:00 +6°C° 0 mm 2 mps 772 mmHg 48%
    03:00 +6°C° 0 mm 2 mps 771 mmHg 48%
    04:00 +6°C° 0 mm 2 mps 771 mmHg 48%
    05:00 +6°C° 0 mm 2 mps 771 mmHg 49%
    06:00 +6°C° 0 mm 2 mps 771 mmHg 49%
    07:00 +6°C° 0 mm 2 mps 771 mmHg 50%
    08:00 +9°C° 0 mm 1 mps 771 mmHg 45%
    09:00 +11°C° 0 mm 1 mps 771 mmHg 41%
    10:00 +12°C° 0 mm 1 mps 771 mmHg 36%
    11:00 +13°C° 0 mm 1 mps 771 mmHg 36%
    12:00 +14°C° 0 mm 2 mps 770 mmHg 36%
    13:00 +14°C° 0 mm 2 mps 770 mmHg 36%
    14:00 +14°C° 0 mm 2 mps 770 mmHg 39%
    15:00 +14°C° 0 mm 2 mps 769 mmHg 43%
    16:00 +14°C° 0 mm 2 mps 769 mmHg 46%
    17:00 +12°C° 0 mm 2 mps 769 mmHg 50%
    18:00 +11°C° 0 mm 1 mps 769 mmHg 54%
    19:00 +10°C° 0 mm 1 mps 769 mmHg 58%
    20:00 +10°C° 0 mm 1 mps 769 mmHg 58%
    21:00 +9°C° 0 mm 1 mps 769 mmHg 58%
    22:00 +9°C° 0 mm 1 mps 769 mmHg 58%
    23:00 +9°C° 0 mm 1 mps 768 mmHg 58%

    24 February, Monday

    Time Temperature Precipitation Wind Pressure Humidity
    00:00 +9°C° 0 mm 1 mps 768 mmHg 57%
    01:00 +9°C° 0 mm 1 mps 768 mmHg 57%
    02:00 +9°C° 0 mm 1 mps 767 mmHg 56%
    03:00 +9°C° 0 mm 1 mps 767 mmHg 55%
    04:00 +8°C° 0 mm 1 mps 767 mmHg 55%
    05:00 +8°C° 0 mm 1 mps 766 mmHg 55%
    06:00 +9°C° 0 mm 1 mps 766 mmHg 54%
    07:00 +9°C° 0 mm 1 mps 766 mmHg 54%
    08:00 +11°C° 0 mm 1 mps 766 mmHg 51%
    09:00 +13°C° 0 mm 1 mps 765 mmHg 47%
    10:00 +15°C° 0 mm 1 mps 765 mmHg 43%
    11:00 +15°C° 0 mm 2 mps 765 mmHg 45%
    12:00 +16°C° 0 mm 2 mps 765 mmHg 46%
    13:00 +16°C° 0 mm 3 mps 765 mmHg 48%
    14:00 +16°C° 0 mm 3 mps 765 mmHg 54%
    15:00 +14°C° 0 mm 4 mps 765 mmHg 60%
    16:00 +14°C° 0 mm 4 mps 765 mmHg 66%
    17:00 +12°C° 0 mm 3 mps 765 mmHg 71%
    18:00 +11°C° 0 mm 3 mps 765 mmHg 77%
    19:00 +10°C° 0 mm 2 mps 766 mmHg 82%
    20:00 +10°C° 0 mm 2 mps 766 mmHg 82%
    21:00 +10°C° 0 mm 2 mps 766 mmHg 82%
    22:00 +9°C° 0 mm 2 mps 766 mmHg 81%
    23:00 +9°C° 0 mm 2 mps 767 mmHg 79%
    Show more